Location: *
(50.0228°S, 177.2688°W)
Time: 23:52:53
(UTC+00:00)

Cosmos 1340 Rocket - Pass Details

Date: 07 April 2020
Orbit: 529 x 559 km, 81.2° (Epoch: 03 June)

Event Time Altitude Azimuth Distance (km) Brightness Sun altitude
Rises 06:04:56 0° 186° (S) 2,772 6.5 -7.6°
Reaches altitude 10° 06:07:16 10° 177° (S) 1,873 5.5 -8.0°
Maximum altitude 06:11:07 37° 109° (ESE) 897 3.4 -8.6°
Drops below altitude 10° 06:14:57 10° 41° (NE) 1,862 5.1 -9.2°
Sets 06:17:15 0° 32° (NNE) 2,752 6.1 -9.6°
